Regional Weather Roundup
Issued by NWS State College, PA

Home | Current Version | Previous Version | Graphics & Text | Print | Product List | Glossary Off
Versions: 1 2 3 4 5 6 7 8 9 10 11 12 13 14 15 16 17 18 19 20 21 22 23 24 25 26 27 28 29 30 31 32 33 34 35 36 37 38 39 40 41 42 43 44 45 46 47 48 49 50

000
ASUS41 KCTP 190910
RWRCTP

REGIONAL WEATHER ROUNDUP
NATIONAL WEATHER SERVICE STATE COLLEGE PA
500 AM EDT SUN APR 19 2015

Note: "fair" indicates few or no clouds below 12,000 feet with no
significant weather and/or obstructions to visibility.

* = STATION THAT DOES NOT REPORT PRECIPITATION /E.G. RAIN...SNOW...ETC/
    THUNDER OR FOG.

PAZ002>004-007>009-013>016-020>023-029>032-191000-
WESTERN PENNSYLVANIA

CITY           SKY/WX    TMP DP  RH WIND       PRES   REMARKS
ERIE           PTCLDY    40  28  62 E3        30.10F
MEADVILLE      PTCLDY    47  23  38 E8        30.07F
FRANKLIN*      PTCLDY    45  25  45 E7        30.10R
NEW CASTLE     FAIR      50  28  42 NE6       30.07S
BEAVER COUNTY  NOT AVBL
BUTLER*        CLOUDY    48  30  49 E7        30.07S
PITTSBURGH INT CLOUDY    55  34  45 E6        30.04R
PITTSBURGH     CLOUDY    55  32  41 NE5       30.03R
INDIANA*       MOCLDY    52  30  43 E8        30.11R
LATROBE        CLOUDY    57  34  41 NE5       30.06R
WASHINGTON CO* CLOUDY    54  37  54 NE3       30.04S
$$

PAZ004>006-010>012-017>019-024>028-033>037-041-042-045-046-049>053-191000-
CENTRAL PENNSYLVANIA

CITY           SKY/WX    TMP DP  RH WIND       PRES   REMARKS
BRADFORD       PTCLDY    40  23  50 E8        30.13R
DUBOIS         MOCLDY    48  25  40 E13       30.09R
CLEARFIELD     MOCLDY    46  27  47 E6        30.13R
JOHNSTOWN      CLOUDY    50  26  39 E8        30.08R
ALTOONA        MOCLDY    51  26  37 NE7       30.12R
STATE COLLEGE  MOCLDY    48  26  42 NE9       30.13R
WILLIAMSPORT   PTCLDY    42  30  62 VRB3      30.16R
SELINSGROVE    PTCLDY    43  34  70 CALM      30.15R
FT INDIANTOWN  PTCLDY    53  27  37 NE2       30.13R
CAPITAL CITY   MOCLDY    55  28  35 NE8       30.12R
HARRISBURG     MOCLDY    57  25  29 E6        30.12R
YORK           MOCLDY    53  30  41 NE5       30.12R
$$

PAZ038>040-043-044-047-048-054-055-060>062-067>071-191000-
EASTERN PENNSYLVANIA

CITY           SKY/WX    TMP DP  RH WIND       PRES   REMARKS
SCRANTON       CLEAR     46  24  42 E5        30.15R
MOUNT POCONO   PTCLDY    41  22  46 NE8       30.14R
ALLENTOWN      PTCLDY    44  27  51 CALM      30.14S
QUAKERTOWN*    MOSUNNY   45  32  61 CALM      30.14S
READING        NOT AVBL
LANCASTER      MOCLDY    51  29  42 NE5       30.12R
COATESVILLE    PTSUNNY   55  27  33 NE3       30.12S
POTTSTOWN      MOCLDY    52  25  35 NE6       30.14S
BLUE BELL      MOCLDY    52  32  46 CALM      30.12S
DOYLESTOWN     PTCLDY    50  25  37 NE6       30.13R
WILLOW GROVE   NOT AVBL
NORTH PHILA    MOCLDY    54  25  32 NE12      30.14R
PHILADELPHIA   MOCLDY    59  25  27 NE9       30.12R
$$


USA.gov is the U.S. government's official web portal to all federal, state and local government web resources and services.